Time,TemperatureF,DewpointF,PressureIn,WindDirection,WindDirectionDegrees,WindSpeedMPH,WindSpeedGustMPH,Humidity,HourlyPrecipIn,Conditions,Clouds,dailyrainin,SoftwareType,DateUTC
2013-03-29 00:03:00,35.0,24.0,30.31,NNE,25,0.0,2.0,63,0.00,,,0.00,,2013-03-29 04:03:00,
2013-03-29 00:13:00,35.0,24.0,30.31,NNE,25,0.0,2.0,63,0.00,,,0.00,,2013-03-29 04:13:00,
2013-03-29 00:23:00,34.0,24.0,30.32,NNE,25,0.0,1.0,67,0.00,,,0.00,,2013-03-29 04:23:00,
2013-03-29 00:33:00,32.0,23.0,30.32,NNE,25,0.0,2.0,69,0.00,,,0.00,,2013-03-29 04:33:00,
2013-03-29 00:43:00,32.0,23.0,30.32,NNE,25,0.0,2.0,69,0.00,,,0.00,,2013-03-29 04:43:00,
2013-03-29 00:52:00,31.0,23.0,30.32,NNE,30,0.0,2.0,71,0.00,,,0.00,,2013-03-29 04:52:00,
2013-03-29 01:03:00,31.0,24.0,30.32,NNE,30,0.0,1.0,74,0.00,,,0.00,,2013-03-29 05:03:00,
2013-03-29 01:13:00,31.0,24.0,30.32,NNE,30,0.0,1.0,74,0.00,,,0.00,,2013-03-29 05:13:00,
2013-03-29 01:23:00,30.0,23.0,30.32,NNE,30,0.0,2.0,75,0.00,,,0.00,,2013-03-29 05:23:00,
2013-03-29 01:33:00,30.0,23.0,30.32,NE,37,0.0,3.0,76,0.00,,,0.00,,2013-03-29 05:33:00,
2013-03-29 01:43:00,30.0,23.0,30.32,NE,37,0.0,3.0,76,0.00,,,0.00,,2013-03-29 05:43:00,
2013-03-29 01:52:00,30.0,23.0,30.32,NE,37,0.0,2.0,76,0.00,,,0.00,,2013-03-29 05:52:00,
2013-03-29 02:03:00,29.0,23.0,30.32,NE,37,0.0,1.0,77,0.00,,,0.00,,2013-03-29 06:03:00,
2013-03-29 02:12:00,29.0,23.0,30.32,NE,37,0.0,1.0,77,0.00,,,0.00,,2013-03-29 06:12:00,
2013-03-29 02:23:00,29.0,23.0,30.32,NE,37,0.0,2.0,78,0.00,,,0.00,,2013-03-29 06:23:00,
2013-03-29 02:32:00,29.0,23.0,30.32,NE,37,0.0,2.0,78,0.00,,,0.00,,2013-03-29 06:32:00,
2013-03-29 02:42:00,29.0,23.0,30.32,NE,37,0.0,2.0,78,0.00,,,0.00,,2013-03-29 06:42:00,
2013-03-29 02:52:00,29.0,23.0,30.32,NE,37,0.0,2.0,78,0.00,,,0.00,,2013-03-29 06:52:00,
2013-03-29 03:03:00,29.0,23.0,30.32,NE,37,0.0,1.0,79,0.00,,,0.00,,2013-03-29 07:03:00,
2013-03-29 03:12:00,29.0,23.0,30.32,NE,37,0.0,1.0,79,0.00,,,0.00,,2013-03-29 07:12:00,
2013-03-29 03:22:00,29.0,23.0,30.32,NE,37,0.0,2.0,78,0.00,,,0.00,,2013-03-29 07:22:00,
2013-03-29 03:32:00,28.0,22.0,30.32,NE,37,0.0,0.0,79,0.00,,,0.00,,2013-03-29 07:32:00,
2013-03-29 03:42:00,28.0,22.0,30.32,NE,37,0.0,0.0,79,0.00,,,0.00,,2013-03-29 07:42:00,
2013-03-29 03:52:00,28.0,23.0,30.32,NE,37,0.0,0.0,80,0.00,,,0.00,,2013-03-29 07:52:00,
2013-03-29 04:02:00,28.0,23.0,30.32,NE,37,0.0,2.0,80,0.00,,,0.00,,2013-03-29 08:02:00,
2013-03-29 04:12:00,28.0,23.0,30.32,NE,37,0.0,2.0,80,0.00,,,0.00,,2013-03-29 08:12:00,
2013-03-29 04:22:00,28.0,23.0,30.32,NE,37,0.0,0.0,81,0.00,,,0.00,,2013-03-29 08:22:00,
2013-03-29 04:32:00,27.0,22.0,30.32,NE,37,0.0,0.0,81,0.00,,,0.00,,2013-03-29 08:32:00,
2013-03-29 04:42:00,27.0,22.0,30.32,NE,37,0.0,0.0,81,0.00,,,0.00,,2013-03-29 08:42:00,
2013-03-29 04:52:00,27.0,22.0,30.32,NE,37,0.0,0.0,82,0.00,,,0.00,,2013-03-29 08:52:00,
2013-03-29 05:02:00,27.0,23.0,30.32,NE,37,0.0,0.0,83,0.00,,,0.00,,2013-03-29 09:02:00,
2013-03-29 05:13:00,27.0,23.0,30.32,NE,37,0.0,0.0,83,0.00,,,0.00,,2013-03-29 09:13:00,
2013-03-29 05:22:00,27.0,23.0,30.32,NE,37,0.0,0.0,83,0.00,,,0.00,,2013-03-29 09:22:00,
2013-03-29 05:33:00,27.0,23.0,30.32,NE,37,0.0,0.0,84,0.00,,,0.00,,2013-03-29 09:33:00,
2013-03-29 05:43:00,27.0,23.0,30.32,NE,37,0.0,0.0,84,0.00,,,0.00,,2013-03-29 09:43:00,
2013-03-29 05:52:00,26.0,22.0,30.33,NE,37,0.0,0.0,84,0.00,,,0.00,,2013-03-29 09:52:00,
2013-03-29 06:03:00,26.0,22.0,30.32,NE,37,0.0,1.0,84,0.00,,,0.00,,2013-03-29 10:03:00,
2013-03-29 06:12:00,26.0,22.0,30.32,NE,37,0.0,1.0,84,0.00,,,0.00,,2013-03-29 10:12:00,
2013-03-29 06:23:00,27.0,23.0,30.33,NE,37,0.0,0.0,85,0.00,,,0.00,,2013-03-29 10:23:00,
2013-03-29 06:33:00,27.0,23.0,30.33,NE,37,0.0,0.0,86,0.00,,,0.00,,2013-03-29 10:33:00,
2013-03-29 06:42:00,27.0,23.0,30.33,NE,37,0.0,0.0,86,0.00,,,0.00,,2013-03-29 10:42:00,
2013-03-29 06:53:00,27.0,23.0,30.33,NE,37,0.0,0.0,85,0.00,,,0.00,,2013-03-29 10:53:00,
2013-03-29 07:04:00,27.0,23.0,30.34,NE,37,0.0,0.0,84,0.00,,,0.00,,2013-03-29 11:04:00,
2013-03-29 07:12:00,27.0,23.0,30.34,NE,37,0.0,0.0,84,0.00,,,0.00,,2013-03-29 11:12:00,
2013-03-29 07:23:00,27.0,23.0,30.34,NE,37,0.0,0.0,84,0.00,,,0.00,,2013-03-29 11:23:00,
2013-03-29 07:33:00,27.0,23.0,30.35,NE,37,0.0,1.0,85,0.00,,,0.00,,2013-03-29 11:33:00,
2013-03-29 07:42:00,27.0,23.0,30.35,NE,37,0.0,1.0,85,0.00,,,0.00,,2013-03-29 11:42:00,
2013-03-29 07:52:00,27.0,23.0,30.35,NE,37,0.0,0.0,85,0.00,,,0.00,,2013-03-29 11:52:00,
2013-03-29 08:03:00,27.0,23.0,30.36,NE,37,0.0,0.0,85,0.00,,,0.00,,2013-03-29 12:03:00,
2013-03-29 08:13:00,27.0,23.0,30.36,NE,37,0.0,0.0,85,0.00,,,0.00,,2013-03-29 12:13:00,
2013-03-29 08:22:00,27.0,23.0,30.36,NE,37,0.0,1.0,85,0.00,,,0.00,,2013-03-29 12:22:00,
2013-03-29 08:32:00,28.0,24.0,30.36,NE,37,0.0,0.0,86,0.00,,,0.00,,2013-03-29 12:32:00,
2013-03-29 08:42:00,28.0,24.0,30.36,NE,37,0.0,0.0,86,0.00,,,0.00,,2013-03-29 12:42:00,
2013-03-29 08:52:00,30.0,26.0,30.36,NE,37,0.0,2.0,85,0.00,,,0.00,,2013-03-29 12:52:00,
2013-03-29 09:03:00,31.0,25.0,30.36,West,278,1.0,5.0,78,0.00,,,0.00,,2013-03-29 13:03:00,
2013-03-29 09:13:00,31.0,25.0,30.36,West,278,1.0,5.0,78,0.00,,,0.00,,2013-03-29 13:13:00,
2013-03-29 09:23:00,33.0,26.0,30.36,West,273,2.0,5.0,74,0.00,,,0.00,,2013-03-29 13:23:00,
2013-03-29 09:33:00,35.0,26.0,30.36,West,272,3.0,6.0,70,0.00,,,0.00,,2013-03-29 13:33:00,
2013-03-29 09:43:00,35.0,26.0,30.36,West,272,3.0,6.0,70,0.00,,,0.00,,2013-03-29 13:43:00,
2013-03-29 09:52:00,37.0,26.0,30.35,West,273,5.0,7.0,65,0.00,,,0.00,,2013-03-29 13:52:00,
2013-03-29 10:03:00,37.0,26.0,30.35,WNW,284,3.0,7.0,64,0.00,,,0.00,,2013-03-29 14:03:00,
2013-03-29 10:12:00,37.0,26.0,30.35,WNW,284,3.0,7.0,64,0.00,,,0.00,,2013-03-29 14:12:00,
2013-03-29 10:22:00,38.0,27.0,30.35,WNW,290,1.0,7.0,64,0.00,,,0.00,,2013-03-29 14:22:00,
2013-03-29 10:33:00,39.0,27.0,30.35,West,261,2.0,8.0,61,0.00,,,0.00,,2013-03-29 14:33:00,
2013-03-29 10:42:00,39.0,27.0,30.35,West,261,2.0,8.0,61,0.00,,,0.00,,2013-03-29 14:42:00,
2013-03-29 10:52:00,41.0,27.0,30.35,West,270,4.0,7.0,58,0.00,,,0.00,,2013-03-29 14:52:00,
2013-03-29 11:02:00,41.0,27.0,30.35,SW,229,4.0,9.0,57,0.00,,,0.00,,2013-03-29 15:02:00,
2013-03-29 11:12:00,41.0,27.0,30.35,SW,229,4.0,9.0,57,0.00,,,0.00,,2013-03-29 15:12:00,
2013-03-29 11:22:00,43.0,28.0,30.34,WSW,256,2.0,7.0,55,0.00,,,0.00,,2013-03-29 15:22:00,
2013-03-29 11:33:00,44.0,28.0,30.35,West,269,2.0,11.0,52,0.00,,,0.00,,2013-03-29 15:33:00,
2013-03-29 11:43:00,44.0,28.0,30.35,West,269,2.0,11.0,52,0.00,,,0.00,,2013-03-29 15:43:00,
2013-03-29 11:53:00,44.0,25.0,30.35,NW,320,5.0,15.0,47,0.00,,,0.00,,2013-03-29 15:53:00,
2013-03-29 12:03:00,44.0,25.0,30.35,NW,320,5.0,15.0,47,0.00,,,0.00,,2013-03-29 16:03:00,
2013-03-29 12:13:00,44.0,25.0,30.35,NW,320,5.0,15.0,47,0.00,,,0.00,,2013-03-29 16:13:00,
2013-03-29 12:23:00,44.0,24.0,30.34,NNW,339,4.0,13.0,45,0.00,,,0.00,,2013-03-29 16:23:00,
2013-03-29 12:33:00,45.0,24.0,30.33,WNW,284,4.0,12.0,43,0.00,,,0.00,,2013-03-29 16:33:00,
2013-03-29 12:43:00,45.0,24.0,30.33,WNW,284,4.0,12.0,43,0.00,,,0.00,,2013-03-29 16:43:00,
2013-03-29 12:52:00,45.0,23.0,30.32,WNW,283,6.0,11.0,42,0.00,,,0.00,,2013-03-29 16:52:00,
2013-03-29 13:03:00,46.0,22.0,30.32,North,355,4.0,14.0,39,0.00,,,0.00,,2013-03-29 17:03:00,
2013-03-29 13:12:00,46.0,22.0,30.32,North,355,4.0,14.0,39,0.00,,,0.00,,2013-03-29 17:12:00,
2013-03-29 13:23:00,47.0,23.0,30.31,West,272,10.0,14.0,38,0.00,,,0.00,,2013-03-29 17:23:00,
2013-03-29 13:33:00,47.0,23.0,30.30,NW,309,5.0,11.0,39,0.00,,,0.00,,2013-03-29 17:33:00,
2013-03-29 13:43:00,47.0,23.0,30.30,NW,309,5.0,11.0,39,0.00,,,0.00,,2013-03-29 17:43:00,
2013-03-29 13:52:00,48.0,24.0,30.29,WSW,252,6.0,14.0,38,0.00,,,0.00,,2013-03-29 17:52:00,
2013-03-29 14:02:00,48.0,24.0,30.29,WSW,252,6.0,14.0,38,0.00,,,0.00,,2013-03-29 18:02:00,
2013-03-29 14:12:00,48.0,24.0,30.29,WSW,252,6.0,14.0,38,0.00,,,0.00,,2013-03-29 18:12:00,
2013-03-29 14:23:00,50.0,26.0,30.27,NNE,26,4.0,12.0,39,0.00,,,0.00,,2013-03-29 18:23:00,
2013-03-29 14:33:00,49.0,24.0,30.27,NW,312,9.0,19.0,37,0.00,,,0.00,,2013-03-29 18:33:00,
2013-03-29 14:42:00,49.0,24.0,30.27,NW,312,9.0,19.0,37,0.00,,,0.00,,2013-03-29 18:42:00,
2013-03-29 14:52:00,50.0,24.0,30.26,North,360,7.0,14.0,36,0.00,,,0.00,,2013-03-29 18:52:00,
2013-03-29 15:03:00,50.0,24.0,30.25,WNW,282,7.0,14.0,36,0.00,,,0.00,,2013-03-29 19:03:00,
2013-03-29 15:12:00,51.0,25.0,30.24,WNW,295,5.0,14.0,36,0.00,,,0.00,,2013-03-29 19:12:00,
2013-03-29 15:23:00,51.0,25.0,30.24,WNW,295,5.0,14.0,36,0.00,,,0.00,,2013-03-29 19:23:00,
2013-03-29 15:33:00,51.0,25.0,30.23,North,350,5.0,13.0,36,0.00,,,0.00,,2013-03-29 19:33:00,
2013-03-29 15:43:00,51.0,25.0,30.23,North,350,5.0,13.0,36,0.00,,,0.00,,2013-03-29 19:43:00,
2013-03-29 15:52:00,51.0,24.0,30.22,NNW,342,4.0,14.0,35,0.00,,,0.00,,2013-03-29 19:52:00,
2013-03-29 16:03:00,51.0,24.0,30.22,NNW,342,4.0,14.0,35,0.00,,,0.00,,2013-03-29 20:03:00,
2013-03-29 16:12:00,51.0,24.0,30.22,NNW,342,4.0,14.0,35,0.00,,,0.00,,2013-03-29 20:12:00,
2013-03-29 16:23:00,51.0,23.0,30.22,West,276,8.0,18.0,33,0.00,,,0.00,,2013-03-29 20:23:00,
2013-03-29 16:33:00,51.0,24.0,30.21,West,274,8.0,13.0,34,0.00,,,0.00,,2013-03-29 20:33:00,
2013-03-29 16:42:00,51.0,24.0,30.21,West,274,8.0,13.0,34,0.00,,,0.00,,2013-03-29 20:42:00,
2013-03-29 16:52:00,52.0,24.0,30.21,North,355,6.0,14.0,33,0.00,,,0.00,,2013-03-29 20:52:00,
2013-03-29 17:02:00,52.0,24.0,30.21,NW,323,8.0,15.0,33,0.00,,,0.00,,2013-03-29 21:02:00,
2013-03-29 17:12:00,52.0,24.0,30.21,NW,323,8.0,15.0,33,0.00,,,0.00,,2013-03-29 21:12:00,
2013-03-29 17:22:00,52.0,24.0,30.21,NNW,332,5.0,12.0,33,0.00,,,0.00,,2013-03-29 21:22:00,
2013-03-29 17:33:00,51.0,24.0,30.20,West,260,6.0,12.0,34,0.00,,,0.00,,2013-03-29 21:33:00,
2013-03-29 17:43:00,51.0,24.0,30.20,West,260,6.0,12.0,34,0.00,,,0.00,,2013-03-29 21:43:00,
2013-03-29 17:53:00,51.0,24.0,30.20,NNW,343,4.0,9.0,34,0.00,,,0.00,,2013-03-29 21:53:00,
2013-03-29 18:03:00,51.0,24.0,30.20,NNW,343,4.0,9.0,34,0.00,,,0.00,,2013-03-29 22:03:00,
2013-03-29 18:13:00,51.0,24.0,30.20,NNW,343,4.0,9.0,34,0.00,,,0.00,,2013-03-29 22:13:00,
2013-03-29 18:23:00,50.0,23.0,30.20,NNE,22,5.0,12.0,35,0.00,,,0.00,,2013-03-29 22:23:00,
2013-03-29 18:33:00,51.0,25.0,30.20,NNE,32,2.0,8.0,36,0.00,,,0.00,,2013-03-29 22:33:00,
2013-03-29 18:42:00,51.0,25.0,30.20,NNE,32,2.0,8.0,36,0.00,,,0.00,,2013-03-29 22:42:00,
2013-03-29 18:53:00,51.0,24.0,30.20,NNW,334,5.0,9.0,35,0.00,,,0.00,,2013-03-29 22:53:00,
2013-03-29 19:03:00,51.0,25.0,30.20,NE,37,3.0,9.0,36,0.00,,,0.00,,2013-03-29 23:03:00,
2013-03-29 19:12:00,51.0,25.0,30.20,NE,37,3.0,9.0,36,0.00,,,0.00,,2013-03-29 23:12:00,
2013-03-29 19:22:00,50.0,25.0,30.20,NNE,29,1.0,8.0,38,0.00,,,0.00,,2013-03-29 23:22:00,
2013-03-29 19:32:00,50.0,25.0,30.21,NE,41,3.0,9.0,37,0.00,,,0.00,,2013-03-29 23:32:00,
2013-03-29 19:42:00,50.0,25.0,30.21,NE,41,3.0,9.0,37,0.00,,,0.00,,2013-03-29 23:42:00,
2013-03-29 19:52:00,50.0,25.0,30.21,North,5,3.0,9.0,37,0.00,,,0.00,,2013-03-29 23:52:00,
2013-03-29 20:03:00,49.0,25.0,30.21,North,355,0.0,4.0,38,0.00,,,0.00,,2013-03-30 00:03:00,
2013-03-29 20:12:00,49.0,25.0,30.21,North,355,0.0,4.0,38,0.00,,,0.00,,2013-03-30 00:12:00,
2013-03-29 20:22:00,49.0,25.0,30.21,North,5,0.0,3.0,39,0.00,,,0.00,,2013-03-30 00:22:00,
2013-03-29 20:33:00,48.0,25.0,30.21,North,355,0.0,4.0,41,0.00,,,0.00,,2013-03-30 00:33:00,
2013-03-29 20:43:00,48.0,25.0,30.21,North,355,0.0,4.0,41,0.00,,,0.00,,2013-03-30 00:43:00,
2013-03-29 20:52:00,48.0,25.0,30.22,North,5,0.0,2.0,41,0.00,,,0.00,,2013-03-30 00:52:00,
2013-03-29 21:03:00,47.0,26.0,30.22,NNE,26,0.0,4.0,43,0.00,,,0.00,,2013-03-30 01:03:00,
2013-03-29 21:13:00,47.0,26.0,30.22,NNE,26,0.0,4.0,43,0.00,,,0.00,,2013-03-30 01:13:00,
2013-03-29 21:22:00,46.0,25.0,30.22,NNE,32,0.0,1.0,44,0.00,,,0.00,,2013-03-30 01:22:00,
2013-03-29 21:33:00,45.0,25.0,30.23,NNE,32,1.0,2.0,46,0.00,,,0.00,,2013-03-30 01:33:00,
2013-03-29 21:43:00,45.0,25.0,30.23,NNE,32,1.0,2.0,46,0.00,,,0.00,,2013-03-30 01:43:00,
2013-03-29 21:52:00,44.0,27.0,30.23,NNE,32,1.0,2.0,50,0.00,,,0.00,,2013-03-30 01:52:00,
2013-03-29 22:03:00,43.0,26.0,30.23,NNE,32,0.0,2.0,51,0.00,,,0.00,,2013-03-30 02:03:00,
2013-03-29 22:12:00,43.0,26.0,30.23,NNE,32,0.0,2.0,51,0.00,,,0.00,,2013-03-30 02:12:00,
2013-03-29 22:22:00,42.0,25.0,30.24,NNE,32,0.0,1.0,51,0.00,,,0.00,,2013-03-30 02:22:00,
2013-03-29 22:33:00,42.0,26.0,30.24,NNE,32,0.0,0.0,53,0.00,,,0.00,,2013-03-30 02:33:00,
2013-03-29 22:43:00,42.0,26.0,30.24,NNE,32,0.0,0.0,53,0.00,,,0.00,,2013-03-30 02:43:00,
2013-03-29 22:52:00,41.0,27.0,30.24,West,268,1.0,5.0,56,0.00,,,0.00,,2013-03-30 02:52:00,
2013-03-29 23:03:00,41.0,27.0,30.24,West,268,1.0,5.0,56,0.00,,,0.00,,2013-03-30 03:03:00,
2013-03-29 23:12:00,40.0,27.0,30.25,West,268,0.0,2.0,60,0.00,,,0.00,,2013-03-30 03:12:00,
2013-03-29 23:22:00,40.0,27.0,30.25,West,268,0.0,2.0,60,0.00,,,0.00,,2013-03-30 03:22:00,
2013-03-29 23:33:00,39.0,27.0,30.25,West,268,0.0,1.0,61,0.00,,,0.00,,2013-03-30 03:33:00,
2013-03-29 23:43:00,39.0,27.0,30.25,West,268,0.0,1.0,61,0.00,,,0.00,,2013-03-30 03:43:00,
2013-03-29 23:53:00,38.0,26.0,30.25,West,268,0.0,0.0,62,0.00,,,0.00,,2013-03-30 03:53:00,